| time (UTC) | temp F | wind direction | speed MPH | gust MPH | rain 1hr in | rain 24hr in | rain mn in | humidity % | barometer mb |
| 20260505185418 | 47 | 248 | 8.0 | 10.0 | 0.00 | 0.00 | 0.00 | 63 | 1010.3 |
| 20260505184418 | 47 | 203 | 9.0 | 11.0 | 0.00 | 0.00 | 0.00 | 61 | 1010.2 |
| 20260505183418 | 47 | 225 | 9.0 | 11.0 | 0.00 | 0.00 | 0.00 | 60 | 1010.2 |
| 20260505182418 | 47 | 248 | 8.0 | 10.0 | 0.00 | 0.00 | 0.00 | 60 | 1010.2 |
| 20260505181419 | 47 | 225 | 10.0 | 12.0 | 0.00 | 0.00 | 0.00 | 58 | 1010.2 |
| 20260505180418 | 48 | 248 | 6.0 | 7.0 | 0.00 | 0.00 | 0.00 | 57 | 1010.3 |
| 20260505175418 | 48 | 248 | 11.0 | 13.0 | 0.00 | 0.00 | 0.00 | 55 | 1010.3 |
| 20260505174418 | 48 | 248 | 10.0 | 13.0 | 0.00 | 0.00 | 0.00 | 57 | 1010.2 |
| 20260505173418 | 48 | 225 | 9.0 | 12.0 | 0.00 | 0.00 | 0.00 | 55 | 1010.3 |
| 20260505172438 | 48 | 248 | 11.0 | 13.0 | 0.00 | 0.00 | 0.00 | 54 | 1010.3 |
| 20260505171420 | 48 | 248 | 12.0 | 14.0 | 0.00 | 0.00 | 0.00 | 56 | 1010.2 |
| 20260505170420 | 48 | 203 | 10.0 | 12.0 | 0.00 | 0.00 | 0.00 | 54 | 1010.2 |
| 20260505165440 | 49 | 248 | 13.0 | 14.0 | 0.00 | 0.00 | 0.00 | 51 | 1010.2 |
| 20260505164419 | 49 | 248 | 10.0 | 12.0 | 0.00 | 0.00 | 0.00 | 49 | 1010.3 |
| 20260505163420 | 50 | 270 | 10.0 | 14.0 | 0.00 | 0.00 | 0.00 | 51 | 1010.3 |
| 20260505162419 | 49 | 248 | 12.0 | 14.0 | 0.00 | 0.00 | 0.00 | 52 | 1010.4 |
| 20260505161420 | 50 | 248 | 11.0 | 14.0 | 0.00 | 0.00 | 0.00 | 50 | 1010.4 |
| 20260505160439 | 49 | 270 | 10.0 | 14.0 | 0.00 | 0.00 | 0.00 | 52 | 1010.3 |
| 20260505152419 | 49 | 248 | 9.0 | 13.0 | 0.00 | 0.00 | 0.00 | 48 | 1010.4 |
| 20260505151419 | 49 | 270 | 9.0 | 12.0 | 0.00 | 0.00 | 0.00 | 46 | 1010.4 |
| 20260505150419 | 50 | 248 | 11.0 | 14.0 | 0.00 | 0.00 | 0.00 | 46 | 1010.4 |
| 20260505140439 | 54 | 293 | 9.0 | 12.0 | 0.00 | 0.00 | 0.00 | 40 | 1010.4 |
| 20260505124419 | 53 | 270 | 9.0 | 12.0 | 0.00 | 0.00 | 0.00 | 41 | 1010.5 |
| 20260505123438 | 53 | 293 | 12.0 | 15.0 | 0.00 | 0.00 | 0.00 | 39 | 1010.6 |
| 20260505122438 | 52 | 293 | 10.0 | 11.0 | 0.00 | 0.00 | 0.00 | 40 | 1010.7 |
| 20260505121418 | 52 | 270 | 11.0 | 16.0 | 0.00 | 0.00 | 0.00 | 41 | 1010.6 |
| 20260505120418 | 52 | 293 | 14.0 | 16.0 | 0.00 | 0.00 | 0.00 | 41 | 1010.7 |
| 20260505115418 | 53 | 293 | 12.0 | 14.0 | 0.00 | 0.00 | 0.00 | 40 | 1010.6 |
| 20260505114418 | 52 | 293 | 7.0 | 10.0 | 0.00 | 0.00 | 0.00 | 43 | 1010.6 |
| 20260505113438 | 53 | 293 | 13.0 | 15.0 | 0.00 | 0.00 | 0.00 | 44 | 1010.6 |
| 20260505112418 | 53 | 293 | 10.0 | 11.0 | 0.00 | 0.00 | 0.00 | 44 | 1010.7 |
| 20260505111420 | 53 | 293 | 11.0 | 14.0 | 0.00 | 0.00 | 0.00 | 43 | 1010.7 |
| 20260505110419 | 53 | 315 | 9.0 | 12.0 | 0.00 | 0.00 | 0.00 | 44 | 1010.7 |
| 20260505101440 | 52 | 315 | 10.0 | 13.0 | 0.00 | 0.00 | 0.00 | 47 | 1010.4 |
| 20260505100420 | 53 | 315 | 12.0 | 13.0 | 0.00 | 0.00 | 0.00 | 44 | 1010.3 |
| 20260505095500 | 52 | 293 | 10.0 | 13.0 | 0.00 | 0.00 | 0.00 | 44 | 1010.3 |
| 20260505094419 | 52 | 293 | 8.0 | 13.0 | 0.00 | 0.00 | 0.00 | 45 | 1010.3 |
| 20260505093419 | 52 | 293 | 11.0 | 13.0 | 0.00 | 0.00 | 0.00 | 45 | 1010.3 |
| 20260505092420 | 51 | 293 | 14.0 | 15.0 | 0.00 | 0.00 | 0.00 | 45 | 1010.2 |
| 20260505091420 | 53 | 315 | 11.0 | 15.0 | 0.00 | 0.00 | 0.00 | 43 | 1010.3 |
| 20260505090419 | 52 | 315 | 13.0 | 15.0 | 0.00 | 0.00 | 0.00 | 44 | 1010.3 |
| 20260505085419 | 52 | 293 | 8.0 | 11.0 | 0.00 | 0.00 | 0.00 | 44 | 1010.1 |
| 20260505084439 | 51 | 315 | 10.0 | 13.0 | 0.00 | 0.00 | 0.00 | 46 | 1009.9 |
| 20260505083419 | 51 | 293 | 10.0 | 14.0 | 0.00 | 0.00 | 0.00 | 45 | 1009.9 |
| 20260505082439 | 51 | 315 | 7.0 | 11.0 | 0.00 | 0.00 | 0.00 | 46 | 1009.8 |
| 20260505081419 | 51 | 315 | 13.0 | 14.0 | 0.00 | 0.00 | 0.00 | 47 | 1009.7 |
| 20260505080419 | 50 | 315 | 12.0 | 15.0 | 0.00 | 0.00 | 0.00 | 48 | 1009.6 |
| 20260505075419 | 49 | 315 | 12.0 | 13.0 | 0.00 | 0.00 | 0.00 | 48 | 1009.5 |
| 20260505074419 | 49 | 315 | 12.0 | 14.0 | 0.00 | 0.00 | 0.00 | 49 | 1009.4 |
| 20260505073419 | 48 | 315 | 11.0 | 12.0 | 0.00 | 0.00 | 0.00 | 50 | 1009.4 |
| 20260505072419 | 47 | 338 | 13.0 | 14.0 | 0.00 | 0.00 | 0.00 | 50 | 1009.4 |
| 20260505071419 | 47 | 338 | 15.0 | 17.0 | 0.00 | 0.00 | 0.00 | 52 | 1009.4 |
| 20260505070438 | 47 | 0 | 15.0 | 18.0 | 0.00 | 0.00 | 0.00 | 52 | 1009.4 |
| 20260505065419 | 46 | 338 | 12.0 | 13.0 | 0.00 | 0.00 | 0.00 | 52 | 1009.4 |
| 20260505064418 | 46 | 315 | 14.0 | 19.0 | 0.00 | 0.00 | 0.00 | 53 | 1009.3 |
| 20260505063419 | 46 | 338 | 15.0 | 18.0 | 0.00 | 0.00 | 0.00 | 52 | 1009.1 |
| 20260505062438 | 45 | 315 | 16.0 | 18.0 | 0.00 | 0.00 | 0.00 | 54 | 1009.1 |
| 20260505061418 | 45 | 315 | 14.0 | 16.0 | 0.00 | 0.00 | 0.00 | 52 | 1009.1 |
| 20260505060418 | 45 | 338 | 13.0 | 16.0 | 0.00 | 0.00 | 0.00 | 54 | 1009.1 |
| 20260505055418 | 44 | 338 | 16.0 | 18.0 | 0.00 | 0.00 | 0.00 | 55 | 1009.1 |
| 20260505054418 | 44 | 315 | 17.0 | 20.0 | 0.00 | 0.00 | 0.00 | 55 | 1008.9 |
| 20260505053418 | 44 | 338 | 16.0 | 18.0 | 0.00 | 0.00 | 0.00 | 56 | 1008.9 |
| 20260505052420 | 44 | 315 | 16.0 | 19.0 | 0.00 | 0.00 | 0.00 | 54 | 1008.7 |
| 20260505051418 | 44 | 315 | 17.0 | 20.0 | 0.00 | 0.00 | 0.00 | 56 | 1008.7 |
| 20260505050440 | 44 | 315 | 18.0 | 20.0 | 0.00 | 0.00 | 0.00 | 57 | 1008.6 |
| 20260505041419 | 44 | 315 | 16.0 | 19.0 | 0.00 | 0.00 | 0.00 | 58 | 1008.3 |
| 20260505040420 | 44 | 338 | 17.0 | 21.0 | 0.00 | 0.00 | 0.00 | 63 | 1008.1 |
| 20260505035420 | 44 | 315 | 17.0 | 19.0 | 0.00 | 0.00 | 0.00 | 61 | 1007.9 |
| 20260505034440 | 43 | 338 | 18.0 | 21.0 | 0.00 | 0.00 | 0.00 | 54 | 1007.8 |
| 20260505033419 | 43 | 338 | 21.0 | 24.0 | 0.00 | 0.00 | 0.00 | 58 | 1007.8 |
| 20260505032420 | 44 | 315 | 20.0 | 23.0 | 0.00 | 0.00 | 0.00 | 63 | 1007.8 |
| 20260505031419 | 44 | 315 | 18.0 | 21.0 | 0.00 | 0.00 | 0.00 | 66 | 1007.8 |
| 20260505030419 | 44 | 0 | 18.0 | 20.0 | 0.00 | 0.00 | 0.00 | 65 | 1007.8 |
| 20260505025419 | 44 | 338 | 15.0 | 18.0 | 0.00 | 0.00 | 0.00 | 65 | 1007.8 |
| 20260505024419 | 44 | 0 | 17.0 | 20.0 | 0.00 | 0.00 | 0.00 | 64 | 1007.7 |
| 20260505023419 | 44 | 338 | 17.0 | 18.0 | 0.00 | 0.00 | 0.00 | 61 | 1007.6 |
| 20260505022439 | 44 | 315 | 13.0 | 16.0 | 0.00 | 0.00 | 0.00 | 64 | 1007.6 |
| 20260505021418 | 45 | 0 | 14.0 | 15.0 | 0.00 | 0.00 | 0.00 | 64 | 1007.6 |
| 20260505020419 | 45 | 315 | 16.0 | 18.0 | 0.00 | 0.00 | 0.00 | 66 | 1007.5 |
| 20260505015418 | 45 | 315 | 18.0 | 20.0 | 0.00 | 0.00 | 0.00 | 65 | 1007.5 |
| 20260505014419 | 45 | 315 | 17.0 | 21.0 | 0.00 | 0.00 | 0.00 | 65 | 1007.4 |
| 20260505013419 | 46 | 315 | 19.0 | 22.0 | 0.00 | 0.00 | 0.00 | 66 | 1007.4 |
| 20260505012418 | 46 | 315 | 21.0 | 25.0 | 0.00 | 0.00 | 0.00 | 63 | 1007.3 |
| 20260505011418 | 46 | 315 | 21.0 | 24.0 | 0.00 | 0.00 | 0.00 | 65 | 1007.2 |
| 20260505010418 | 46 | 315 | 22.0 | 25.0 | 0.00 | 0.00 | 0.00 | 67 | 1007.2 |
| 20260505005418 | 47 | 315 | 21.0 | 25.0 | 0.00 | 0.00 | 0.00 | 69 | 1007.1 |
| 20260505004459 | 47 | 315 | 19.0 | 25.0 | 0.00 | 0.00 | 0.00 | 68 | 1007.1 |
| 20260505003418 | 47 | 315 | 23.0 | 28.0 | 0.00 | 0.00 | 0.00 | 71 | 1006.9 |
| 20260505002418 | 48 | 315 | 22.0 | 26.0 | 0.00 | 0.00 | 0.00 | 72 | 1006.7 |
| 20260505001418 | 48 | 0 | 22.0 | 28.0 | 0.00 | 0.00 | 0.00 | 74 | 1006.7 |
| 20260505000420 | 48 | 0 | 21.0 | 27.0 | 0.00 | 0.00 | 0.00 | 73 | 1006.6 |
| 20260504235418 | 48 | 293 | 25.0 | 28.0 | 0.00 | 0.00 | 0.00 | 73 | 1006.7 |
| 20260504234438 | 48 | 0 | 27.0 | 33.0 | 0.00 | 0.00 | 0.00 | 74 | 1006.5 |
| 20260504233418 | 48 | 0 | 28.0 | 31.0 | 0.00 | 0.00 | 0.00 | 73 | 1006.4 |
| 20260504232440 | 48 | 0 | 23.0 | 32.0 | 0.00 | 0.00 | 0.00 | 79 | 1006.6 |
| 20260504231438 | 49 | 0 | 24.0 | 31.0 | 0.00 | 0.00 | 0.00 | 81 | 1006.6 |
| 20260504230420 | 49 | 0 | 25.0 | 30.0 | 0.00 | 0.00 | 0.00 | 81 | 1006.4 |
| 20260504225440 | 49 | 0 | 24.0 | 29.0 | 0.00 | 0.00 | 0.00 | 81 | 1006.3 |
| 20260504224420 | 49 | 0 | 28.0 | 32.0 | 0.00 | 0.00 | 0.00 | 81 | 1006.3 |
| 20260504223419 | 49 | 0 | 26.0 | 33.0 | 0.00 | 0.00 | 0.00 | 81 | 1006.4 |
| 20260504222420 | 49 | 0 | 28.0 | 33.0 | 0.00 | 0.00 | 0.00 | 81 | 1006.3 |
| 20260504221439 | 49 | 0 | 24.0 | 28.0 | 0.00 | 0.00 | 0.00 | 81 | 1006.4 |
| 20260504220440 | 49 | 0 | 25.0 | 33.0 | 0.00 | 0.00 | 0.00 | 81 | 1006.3 |
| 20260504215418 | 49 | 0 | 25.0 | 32.0 | 0.00 | 0.00 | 0.00 | 81 | 1006.1 |
| 20260504214418 | 49 | 0 | 24.0 | 29.0 | 0.00 | 0.00 | 0.00 | 81 | 1006.1 |
| 20260504213438 | 49 | 0 | 24.0 | 29.0 | 0.00 | 0.00 | 0.00 | 81 | 1006.2 |
| 20260504212418 | 49 | 0 | 22.0 | 29.0 | 0.00 | 0.00 | 0.00 | 81 | 1006.2 |
| 20260504211420 | 49 | 0 | 26.0 | 33.0 | 0.00 | 0.00 | 0.00 | 82 | 1006.1 |
| 20260504210420 | 50 | 0 | 26.0 | 32.0 | 0.00 | 0.00 | 0.00 | 82 | 1006.1 |
| 20260504205420 | 50 | 0 | 22.0 | 28.0 | 0.00 | 0.00 | 0.00 | 81 | 1006.0 |
| 20260504204440 | 50 | 0 | 22.0 | 31.0 | 0.00 | 0.00 | 0.00 | 81 | 1006.1 |
| 20260504203420 | 50 | 0 | 20.0 | 25.0 | 0.00 | 0.00 | 0.00 | 81 | 1006.0 |
| 20260504202419 | 50 | 0 | 21.0 | 27.0 | 0.00 | 0.00 | 0.00 | 81 | 1005.9 |
| 20260504201420 | 50 | 0 | 20.0 | 25.0 | 0.00 | 0.00 | 0.00 | 81 | 1006.0 |
| 20260504200419 | 50 | 0 | 19.0 | 29.0 | 0.00 | 0.00 | 0.00 | 80 | 1005.9 |
| 20260504195419 | 51 | 0 | 23.0 | 30.0 | 0.00 | 0.00 | 0.00 | 80 | 1005.9 |
| 20260504194420 | 50 | 0 | 23.0 | 29.0 | 0.00 | 0.00 | 0.00 | 80 | 1005.8 |
| 20260504193419 | 50 | 0 | 20.0 | 23.0 | 0.00 | 0.00 | 0.00 | 81 | 1005.6 |
| 20260504192419 | 50 | 0 | 19.0 | 23.0 | 0.00 | 0.00 | 0.00 | 81 | 1005.7 |
| 20260504191419 | 50 | 0 | 20.0 | 23.0 | 0.00 | 0.00 | 0.00 | 81 | 1005.7 |
| 20260504190419 | 51 | 0 | 21.0 | 26.0 | 0.00 | 0.00 | 0.00 | 80 | 1005.6 |